Home > Time Zones > World Clock > Weather > Ghana > Accra > Past weeks

Flag for Ghana Weather past 2 weeks in Accra, Ghana

Now
86 °F

Passing clouds.


Feels Like: 93 °F
Forecast: 79 / 89 °F
Wind: 14 mph from South

Location: Accra Airport

Current Time: May 30, 2015 at 1:38:50 PM

Latest Report: May 30, 2015 at 1:00 PM


Visibility: N/A

Pressure: 29.86 "Hg

Humidity: 66%

Dew point: 73 °F

Location of AccraLocation

Historic Weather in Accra — Graph

°F

Accra temperature yesterday

Maximum temperature yesterday: 82 °F (at 10:00 AM)
Minimum temperature yesterday: 77 °F (at 2:00 AM)
Average temperature yesterday: 79 °F

Past Weeks' High & Low Weather Summary

 TemperatureHumidityPressure
High91 °F (May 17, 11:00 AM)100% (May 23, 8:00 PM)29.98 "Hg (May 23, 8:00 PM)
Low73 °F (May 23, 8:00 PM)59% (May 20, 10:57 AM)29.80 "Hg (May 15, 5:00 PM)
Average83 °F82%29.88 "Hg
* Reported May 15 11:00 AM — May 30 11:53 AM, Accra, Weather by CustomWeather, © 2015

Note: Actual official high and low records may vary slightly from our data, if they occured in-between our weather recording intervals... More about our weather records

Advertising

Accra weather history for previous 24 hours

 ConditionsComfort  
Time TempWeatherWind HumidityBarometerVisibility
11:53 AM
Sat, May 30
86 °FScattered clouds.12 mph70%29.89 "HgN/A
10:56 AM88 °FScattered clouds.13 mph66%29.89 "HgN/A
10:00 AM86 °FPassing clouds.9 mph70%29.89 "HgN/A
8:00 AM81 °FPassing clouds.10 mph84%29.89 "HgN/A
7:00 AM77 °FPassing clouds.9 mph94%29.89 "HgN/A
6:00 AM77 °FPassing clouds.7 mph89%29.89 "HgN/A
4:56 AM77 °FPassing clouds.7 mph89%29.89 "HgN/A
3:56 AM77 °FPassing clouds.7 mph89%29.86 "HgN/A
3:00 AM77 °FClear.7 mph89%29.86 "Hg10 mi
2:00 AM79 °FPassing clouds.6 mph84%29.86 "HgN/A
1:00 AM79 °FPassing clouds.7 mph84%29.86 "HgN/A
12:00 AM79 °FPassing clouds.5 mph89%29.89 "HgN/A
11:00 PM
Fri, May 29
79 °FClear.1 mph89%29.92 "Hg10 mi
10:00 PM79 °FClear.2 mph84%29.89 "Hg10 mi
9:00 PM79 °FClear.2 mph84%29.86 "Hg10 mi
8:00 PM81 °FClear.6 mph79%29.83 "Hg10 mi
7:00 PM81 °FClear.8 mph79%29.83 "Hg10 mi
6:00 PM79 °FPassing clouds.5 mph84%29.83 "HgN/A
5:00 PM81 °FPassing clouds.6 mph79%29.83 "HgN/A
4:00 PM81 °FPassing clouds.7 mph79%29.83 "HgN/A
3:00 PM81 °FPassing clouds.3 mph79%29.83 "HgN/A
2:00 PM81 °FScattered clouds.9 mph79%29.86 "HgN/A
1:00 PM79 °FScattered clouds.7 mph89%29.89 "HgN/A
Weather by CustomWeather, © 2015

See weather overviewHow to use our weather pages